GOES 15

Last updated on Wed Jul 02 2025 00:02:33 GMT+0000 (Coordinated Universal Time)

1 36411U 10008A 25182.59628027 .00000042 00000+0 00000+0 0 9995 2 36411 0.3720 85.3635 0002799 110.1245 0.3156 1.00272186 56126
UTC large
Height (km)
Speed (km/s)
/
Latitude / Longitude
Inclination (degrees)
Orbital Period (minutes)
Azimuth
Elevation
Range (km)
Doppler Factor

Next 0 passes for location: London (51.5072 / 0.1276)

Sorry there are no passes over London.